FW7576 Weather Reports


time (UTC)temp
C
wind
direction
speed
KPH
gust
KPH
rain 1hr
cm
rain 24hr
cm
rain mn
cm
humidity
%
barometer
mb
20260901220056 25 283 0.0 8.0 0.10 0.15 0.15 83 1013.8
20260901214546 25 253 1.6 9.7 0.10 0.15 0.15 82 1013.9
20260901213103 25 251 0.0 9.7 0.10 0.15 0.15 82 1014.0
20260901211545 26 0 3.2 14.5 0.00 0.05 0.05 80 1014.0
20260901210041 26 259 4.8 16.1 0.05 0.05 0.05 82 1014.1
20260901204545 26 264 4.8 14.5 0.05 0.05 0.05 84 1013.9
20260901203055 27 264 1.6 8.0 0.05 0.05 0.05 84 1014.1
20260901201540 27 221 1.6 14.5 0.05 0.05 0.05 80 1014.3
20260901200050 28 267 8.0 19.3 0.00 0.00 0.00 76 1014.5
20260901194545 29 256 4.8 11.3 0.00 0.00 0.00 74 1013.9
20260901193057 30 224 4.8 17.7 0.00 0.00 0.00 72 1014.5
20260901191542 30 261 8.0 17.7 0.00 0.00 0.00 69 1014.6
20260901190041 30 258 11.3 19.3 0.00 0.00 0.00 69 1014.3
20260901184545 30 238 9.7 17.7 0.00 0.00 0.00 71 1014.3
20260901183042 30 239 8.0 17.7 0.00 0.00 0.00 71 1014.4
20260901181543 30 222 4.8 14.5 0.00 0.00 0.00 73 1014.2
20260901180044 30 240 6.4 14.5 0.00 0.00 0.00 73 1014.3
20260901174547 30 280 4.8 14.5 0.00 0.00 0.00 75 1014.3
20260901173046 29 205 6.4 16.1 0.00 0.00 0.00 78 1014.6
20260901171546 30 252 3.2 11.3 0.00 0.00 0.00 78 1014.7
20260901170047 29 242 1.6 12.9 0.00 0.00 0.00 79 1014.7
20260901164547 29 201 1.6 8.0 0.00 0.00 0.00 80 1014.8
20260901163043 28 248 1.6 6.4 0.00 0.00 0.00 80 1014.6
20260901161544 28 162 1.6 8.0 0.00 0.00 0.00 80 1014.9
20260901160046 28 226 1.6 6.4 0.00 0.00 0.00 79 1015.2
20260901154548 28 210 0.0 4.8 0.00 0.00 0.00 80 1015.0
20260901153055 28 254 0.0 3.2 0.00 0.00 0.00 79 1015.0
20260901151544 28 257 0.0 6.4 0.00 0.00 0.00 79 1014.8
20260901150050 27 247 3.2 6.4 0.00 0.00 0.00 81 1014.9
20260901144548 27 225 0.0 4.8 0.00 0.00 0.00 82 1015.0
20260901143053 27 266 1.6 6.4 0.00 0.00 0.00 83 1015.0
20260901141553 26 320 4.8 9.7 0.00 0.00 0.00 84 1015.1
20260901140045 26 247 4.8 8.0 0.00 0.00 0.00 84 1015.1
20260901134544 25 202 0.0 3.2 0.00 0.00 0.00 86 1015.0
20260901133043 25 213 0.0 8.0 0.00 0.00 0.00 86 1015.0
20260901131550 24 0 0.0 6.4 0.00 0.00 0.00 86 1014.9
20260901130045 23 0 0.0 1.6 0.00 0.00 0.00 87 1015.1
20260901124550 23 0 0.0 1.6 0.00 0.00 0.00 87 1015.0
20260901123050 23 0 0.0 1.6 0.00 0.00 0.00 86 1014.9
20260901121549 22 0 0.0 0.0 0.00 0.00 0.00 86 1014.9
20260901120047 22 0 0.0 1.6 0.00 0.00 0.00 86 1014.7
20260901114544 22 0 0.0 0.0 0.00 0.03 0.00 87 1014.4
20260901113043 22 0 0.0 0.0 0.00 0.03 0.00 87 1014.1
20260901111539 22 0 0.0 0.0 0.00 0.03 0.00 87 1013.9
20260901110045 22 0 0.0 0.0 0.00 0.03 0.00 87 1013.8
20260901104544 22 0 0.0 0.0 0.00 0.38 0.00 87 1013.8
20260901103048 23 0 0.0 3.2 0.00 0.38 0.00 87 1013.7
20260901101541 23 0 0.0 0.0 0.00 0.38 0.00 87 1013.7
20260901100043 23 0 0.0 0.0 0.00 0.38 0.00 87 1013.8
20260901094549 23 0 0.0 0.0 0.00 0.41 0.00 86 1013.6
20260901093046 24 0 0.0 6.4 0.00 0.41 0.00 86 1013.7
20260901091543 24 233 1.6 6.4 0.00 0.41 0.00 86 1013.6
20260901090055 24 221 1.6 6.4 0.00 0.41 0.00 86 1013.6
20260901084547 23 224 4.8 8.0 0.00 0.41 0.00 86 1013.6
20260901083046 23 238 3.2 4.8 0.00 0.41 0.00 87 1013.5
20260901081546 23 251 1.6 6.4 0.00 0.41 0.00 87 1013.4
20260901080041 23 253 1.6 4.8 0.00 0.41 0.00 87 1013.5
20260901074547 23 255 1.6 3.2 0.00 0.41 0.00 87 1013.6
20260901073046 23 0 0.0 4.8 0.00 0.41 0.00 87 1013.5
20260901071553 23 0 0.0 6.4 0.00 0.41 0.00 87 1013.5
20260901070044 23 252 1.6 6.4 0.00 0.41 0.00 86 1013.7
20260901064543 24 267 3.2 8.0 0.00 0.41 0.00 86 1013.7
20260901063041 24 228 3.2 8.0 0.00 0.41 0.00 86 1013.7
20260901061546 24 228 1.6 6.4 0.00 0.41 0.00 86 1013.6
20260901060047 24 248 1.6 4.8 0.00 0.41 0.00 86 1013.5
20260901054543 24 237 4.8 9.7 0.00 0.41 0.00 85 1013.6
20260901053044 24 258 3.2 8.0 0.00 0.41 0.00 85 1013.5
20260901051546 24 257 3.2 9.7 0.00 0.41 0.00 86 1013.4
20260901050044 24 253 3.2 6.4 0.00 0.41 0.00 86 1013.5
20260901044545 24 256 0.0 6.4 0.00 0.41 0.41 86 1013.7
20260901043043 25 250 4.8 9.7 0.00 0.41 0.41 86 1013.8
20260901041607 25 254 3.2 9.7 0.00 0.41 0.41 86 1013.6
20260901040045 25 250 4.8 8.0 0.00 0.41 0.41 85 1013.7
20260901034540 25 252 4.8 9.7 0.00 0.41 0.41 85 1013.7
20260901033040 25 241 3.2 8.0 0.00 0.41 0.41 85 1013.9
20260901031544 25 257 3.2 8.0 0.00 0.41 0.41 85 1013.8
20260901030051 25 232 0.0 3.2 0.00 0.41 0.41 85 1013.8
20260901024543 25 252 0.0 8.0 0.00 0.41 0.41 84 1013.9
20260901023050 26 231 4.8 8.0 0.00 0.41 0.41 83 1013.9
20260901021549 26 264 4.8 8.0 0.00 0.41 0.41 83 1014.0
20260901020042 26 244 3.2 9.7 0.00 0.41 0.41 82 1013.7
20260901014549 26 252 1.6 4.8 0.00 0.41 0.41 81 1013.5
20260901013045 26 245 3.2 9.7 0.00 0.41 0.41 80 1013.6
20260901011542 27 278 3.2 11.3 0.00 0.41 0.41 79 1013.4
20260901010046 27 249 1.6 11.3 0.00 0.41 0.41 78 1013.0
20260901004551 27 205 3.2 14.5 0.00 0.41 0.41 77 1013.0
20260901003042 27 250 3.2 14.5 0.00 0.41 0.41 76 1013.0
20260901001545 27 258 3.2 9.7 0.00 0.41 0.41 76 1012.9
20260901000048 27 243 1.6 12.9 0.00 0.41 0.41 75 1012.9
20260831234545 27 223 3.2 19.3 0.00 0.41 0.41 74 1012.8
20260831233049 27 224 3.2 12.9 0.00 0.41 0.41 74 1012.7
20260831231547 28 224 3.2 17.7 0.00 0.41 0.41 74 1012.6
20260831230044 28 234 8.0 19.3 0.00 0.41 0.41 73 1012.7
20260831224551 28 265 6.4 20.9 0.00 0.41 0.41 74 1012.5
20260831223044 28 245 6.4 16.1 0.00 0.41 0.41 73 1012.3
20260831221540 28 220 3.2 17.7 0.00 0.41 0.41 72 1012.4